星链-31871 (STARLINK-31871 )

导读

STARLINK-31871是美国SpaceX星链(Starlink)互联网星座项目中的一颗卫星,于2024年5月6日发射入轨,属于星链v2版本卫星。该卫星运行于近地轨道,配备星间激光通信设备,可为全球用户提供低延迟、高速率的卫星互联网接入服务,支持手机直连等功能。它的入轨进一步扩充了星链星座规模,增强了星座覆盖范围与通信稳定性,既为民用提供普惠互联网服务,也可支持特殊场景下的通信需求。

基本信息
目录编号:
59673
目录名称:
STARLINK-31871
国际标识:
2024-084V
轨道中心:
EARTH
卫星名称:
星链-31871
卫星全名:
星链-31871 (STARLINK-31871 )
卫星状态:
在轨 (已飞行772 天)
发射日期:
2024-05-06 UTC
国别 :
美国 (US)
星等 :
--
轨道信息
数据来源 国际轨道数据 AOE轨道数据
星历时间 2026-06-17T20:45:27+0800
9小时前
查看轨道信息
2026-06-17T07:00:00+0800
23小时前
查看轨道信息
半长轴 6861.195km 6861.176km
偏心率 0.0001231 0.0001722
轨道倾角 43.004° 43.002°
近地点辐角 275.197° 237.873°
升交点赤经 197.852° 201.094°
平近点角 84.874° 206.159°
近地点 482.213km 481.857km
远地点 483.903km 484.221km
周期 94.267分钟 94.267分钟
每日圈数 15.275772 15.275834
详细信息
固有亮度:
5
最大亮度:
1.5
卫星平台:
Starlink v2.0 mini
覆盖范围:
全球
运营商:
太空探索技术公司
运营商所在国:
美国
制造商(研发单位):
太空探索技术公司
制造商所在国:
美国
使用方式:
暂无
卫星简介
星链(Starlink)计划是由太空探索技术公司(SpaceX)提出的一个巨型低轨卫星互联网星座项目,计划在2019年至2024年间在太空搭建由约1.2万颗卫星组成的“星链”网络,其中1584颗将部署在地球上空550千米处的近地轨道,并从2020年开始工作。该卫星仍在工作。
2D轨道图
3D轨道图
轨道高度分析图
轨道倾角分析图
轨道综合分析图
查看轨道综合分析图